When you browse on this site, cookies collect data to enhance your experience and personalize the content and advertising you see.
Visit our Privacy Policy to learn more. By continuing to use the site, you agree to this use of cookies and data.
  • In Österreich
  • Länderverzeichnis
  • Für 7 Tage
  • Wassertemperatur
  • Satellitenkarten
  • Wetterkarte
  • News
  • Widgets
  • user-avatar
    Anmelden

    Stündliche Wetter Seli

    Heute, 10 Dezember, Montag

    Zeit Temperatur Niederschläge Wind Luftdruck Luftfeuchtigkeit
    00:00 +13°C° 0 mm 10 m/S 747 mmHg 71%
    01:00 +13°C° 0 mm 9 m/S 747 mmHg 72%
    02:00 +13°C° 0 mm 9 m/S 747 mmHg 74%
    03:00 +13°C° 0 mm 9 m/S 747 mmHg 75%
    04:00 +13°C° 0 mm 9 m/S 747 mmHg 76%
    05:00 +13°C° 0 mm 9 m/S 746 mmHg 76%
    06:00 +13°C° 0.1 mm 9 m/S 746 mmHg 77%
    07:00 +13°C° 0.1 mm 9 m/S 745 mmHg 78%
    08:00 +13°C° 0.1 mm 9 m/S 745 mmHg 78%
    09:00 +14°C° 0.2 mm 10 m/S 745 mmHg 76%
    10:00 +16°C° 0.2 mm 10 m/S 745 mmHg 73%
    11:00 +17°C° 0.2 mm 11 m/S 744 mmHg 70%
    12:00 +17°C° 0.5 mm 12 m/S 744 mmHg 68%
    13:00 +17°C° 0.5 mm 13 m/S 744 mmHg 67%
    14:00 +18°C° 0.5 mm 14 m/S 743 mmHg 65%
    15:00 +17°C° 0.2 mm 14 m/S 743 mmHg 66%
    16:00 +15°C° 0.2 mm 13 m/S 743 mmHg 67%
    17:00 +15°C° 0.2 mm 13 m/S 743 mmHg 68%
    18:00 +14°C° 0 mm 13 m/S 744 mmHg 67%
    19:00 +14°C° 0 mm 12 m/S 744 mmHg 67%
    20:00 +13°C° 0 mm 12 m/S 745 mmHg 67%
    21:00 +13°C° 0 mm 12 m/S 745 mmHg 66%
    22:00 +13°C° 0 mm 11 m/S 745 mmHg 66%
    23:00 +13°C° 0 mm 11 m/S 746 mmHg 65%

    Morgen, 11 Dezember, Dienstag

    Zeit Temperatur Niederschläge Wind Luftdruck Luftfeuchtigkeit
    00:00 +13°C° 0.2 mm 10 m/S 746 mmHg 66%
    01:00 +13°C° 0.2 mm 9 m/S 746 mmHg 67%
    02:00 +12°C° 0.2 mm 8 m/S 747 mmHg 68%
    03:00 +12°C° 0.4 mm 8 m/S 747 mmHg 67%
    04:00 +12°C° 0.4 mm 7 m/S 746 mmHg 66%
    05:00 +12°C° 0.4 mm 7 m/S 746 mmHg 66%
    06:00 +12°C° 0.3 mm 7 m/S 747 mmHg 66%
    07:00 +13°C° 0.3 mm 6 m/S 747 mmHg 67%
    08:00 +13°C° 0.3 mm 6 m/S 747 mmHg 68%
    09:00 +14°C° 0.1 mm 7 m/S 747 mmHg 65%
    10:00 +15°C° 0.1 mm 7 m/S 748 mmHg 61%
    11:00 +16°C° 0.1 mm 7 m/S 748 mmHg 58%
    12:00 +16°C° 0.1 mm 8 m/S 748 mmHg 57%
    13:00 +16°C° 0.1 mm 9 m/S 747 mmHg 55%
    14:00 +16°C° 0.1 mm 9 m/S 747 mmHg 54%
    15:00 +16°C° 0.1 mm 9 m/S 747 mmHg 57%
    16:00 +15°C° 0.1 mm 9 m/S 748 mmHg 60%
    17:00 +14°C° 0.1 mm 10 m/S 748 mmHg 63%
    18:00 +13°C° 0 mm 9 m/S 748 mmHg 63%
    19:00 +13°C° 0 mm 9 m/S 749 mmHg 64%
    20:00 +13°C° 0 mm 9 m/S 749 mmHg 64%
    21:00 +12°C° 0 mm 8 m/S 749 mmHg 64%
    22:00 +12°C° 0 mm 7 m/S 750 mmHg 64%
    23:00 +12°C° 0 mm 7 m/S 750 mmHg 63%

    übermorgen, 12 Dezember, Mittwoch

    Zeit Temperatur Niederschläge Wind Luftdruck Luftfeuchtigkeit
    00:00 +11°C° 0 mm 6 m/S 750 mmHg 63%
    01:00 +11°C° 0 mm 6 m/S 750 mmHg 63%
    02:00 +11°C° 0 mm 6 m/S 750 mmHg 64%
    03:00 +11°C° 0 mm 6 m/S 750 mmHg 63%
    04:00 +10°C° 0 mm 7 m/S 750 mmHg 63%
    05:00 +10°C° 0 mm 7 m/S 750 mmHg 63%
    06:00 +10°C° 0 mm 7 m/S 751 mmHg 63%
    07:00 +10°C° 0 mm 7 m/S 751 mmHg 64%
    08:00 +11°C° 0 mm 7 m/S 751 mmHg 65%
    09:00 +13°C° 0 mm 6 m/S 752 mmHg 59%
    10:00 +14°C° 0 mm 6 m/S 752 mmHg 54%
    11:00 +15°C° 0 mm 6 m/S 752 mmHg 48%
    12:00 +15°C° 0 mm 6 m/S 752 mmHg 47%
    13:00 +16°C° 0 mm 5 m/S 752 mmHg 45%
    14:00 +16°C° 0 mm 5 m/S 752 mmHg 44%
    15:00 +15°C° 0 mm 5 m/S 752 mmHg 45%
    16:00 +14°C° 0 mm 5 m/S 752 mmHg 47%
    17:00 +14°C° 0 mm 5 m/S 752 mmHg 49%
    18:00 +13°C° 0 mm 5 m/S 752 mmHg 52%
    19:00 +13°C° 0 mm 4 m/S 752 mmHg 54%
    20:00 +12°C° 0 mm 4 m/S 752 mmHg 57%
    21:00 +12°C° 0 mm 4 m/S 752 mmHg 58%
    22:00 +12°C° 0 mm 3 m/S 753 mmHg 59%
    23:00 +12°C° 0 mm 3 m/S 753 mmHg 60%

    13 Dezember, Donnerstag

    Zeit Temperatur Niederschläge Wind Luftdruck Luftfeuchtigkeit
    00:00 +12°C° 0 mm 3 m/S 753 mmHg 61%
    01:00 +12°C° 0 mm 3 m/S 753 mmHg 61%
    02:00 +13°C° 0 mm 2 m/S 753 mmHg 62%
    03:00 +13°C° 0 mm 2 m/S 753 mmHg 62%
    04:00 +13°C° 0 mm 2 m/S 752 mmHg 62%
    05:00 +13°C° 0 mm 2 m/S 752 mmHg 62%
    06:00 +13°C° 0 mm 2 m/S 752 mmHg 64%
    07:00 +13°C° 0 mm 2 m/S 753 mmHg 65%
    08:00 +13°C° 0 mm 2 m/S 753 mmHg 67%
    09:00 +12°C° 0 mm 3 m/S 753 mmHg 68%
    10:00 +13°C° 0 mm 3 m/S 753 mmHg 69%
    11:00 +14°C° 0 mm 4 m/S 753 mmHg 70%
    12:00 +13°C° 0 mm 4 m/S 752 mmHg 73%
    13:00 +13°C° 0 mm 4 m/S 752 mmHg 76%
    14:00 +13°C° 0 mm 5 m/S 751 mmHg 78%
    15:00 +13°C° 0.1 mm 5 m/S 751 mmHg 81%
    16:00 +13°C° 0.1 mm 5 m/S 751 mmHg 84%
    17:00 +13°C° 0.1 mm 4 m/S 751 mmHg 86%
    18:00 +12°C° 0.1 mm 4 m/S 751 mmHg 88%
    19:00 +12°C° 0.1 mm 4 m/S 751 mmHg 90%
    20:00 +12°C° 0.1 mm 4 m/S 752 mmHg 92%
    21:00 +12°C° 0.1 mm 4 m/S 752 mmHg 91%
    22:00 +12°C° 0.1 mm 4 m/S 752 mmHg 90%
    23:00 +12°C° 0.1 mm 4 m/S 752 mmHg 89%

    14 Dezember, Freitag

    Zeit Temperatur Niederschläge Wind Luftdruck Luftfeuchtigkeit
    00:00 +12°C° 0.1 mm 4 m/S 752 mmHg 88%
    01:00 +12°C° 0.1 mm 5 m/S 751 mmHg 88%
    02:00 +12°C° 0.1 mm 5 m/S 751 mmHg 87%
    03:00 +12°C° 0.1 mm 5 m/S 751 mmHg 87%
    04:00 +12°C° 0.1 mm 5 m/S 751 mmHg 86%
    05:00 +12°C° 0.1 mm 5 m/S 751 mmHg 86%
    06:00 +12°C° 0.1 mm 5 m/S 751 mmHg 86%
    07:00 +13°C° 0.1 mm 5 m/S 751 mmHg 86%
    08:00 +13°C° 0.1 mm 4 m/S 751 mmHg 85%
    09:00 +14°C° 0.1 mm 4 m/S 751 mmHg 79%
    10:00 +17°C° 0.1 mm 4 m/S 751 mmHg 73%
    11:00 +18°C° 0.1 mm 4 m/S 752 mmHg 67%
    12:00 +18°C° 0 mm 4 m/S 751 mmHg 67%
    13:00 +18°C° 0 mm 4 m/S 751 mmHg 67%
    14:00 +19°C° 0 mm 4 m/S 750 mmHg 67%
    15:00 +17°C° 0.1 mm 5 m/S 750 mmHg 71%
    16:00 +16°C° 0.1 mm 5 m/S 750 mmHg 75%
    17:00 +15°C° 0.1 mm 5 m/S 750 mmHg 79%
    18:00 +15°C° 0 mm 5 m/S 749 mmHg 79%
    19:00 +15°C° 0 mm 5 m/S 749 mmHg 80%
    20:00 +14°C° 0 mm 5 m/S 749 mmHg 80%
    21:00 +14°C° 0 mm 6 m/S 749 mmHg 78%
    22:00 +14°C° 0 mm 6 m/S 749 mmHg 76%
    23:00 +12°C° 0 mm 7 m/S 748 mmHg 75%

    15 Dezember, Samstag

    Zeit Temperatur Niederschläge Wind Luftdruck Luftfeuchtigkeit
    00:00 +14°C° 0 mm 7 m/S 748 mmHg 72%
    01:00 +13°C° 0 mm 8 m/S 747 mmHg 70%
    02:00 +15°C° 0 mm 8 m/S 747 mmHg 68%
    03:00 +15°C° 0.4 mm 8 m/S 746 mmHg 68%
    04:00 +15°C° 0.4 mm 9 m/S 746 mmHg 68%
    05:00 +15°C° 0.4 mm 9 m/S 745 mmHg 67%
    06:00 +15°C° 1.7 mm 8 m/S 745 mmHg 67%
    07:00 +15°C° 1.7 mm 7 m/S 745 mmHg 66%
    08:00 +16°C° 1.7 mm 6 m/S 745 mmHg 66%
    09:00 +15°C° 1.4 mm 6 m/S 745 mmHg 71%
    10:00 +14°C° 1.4 mm 5 m/S 745 mmHg 77%
    11:00 +14°C° 1.4 mm 5 m/S 745 mmHg 82%
    12:00 +13°C° 0.4 mm 5 m/S 745 mmHg 82%
    13:00 +13°C° 0.4 mm 5 m/S 745 mmHg 82%
    14:00 +13°C° 0.4 mm 5 m/S 744 mmHg 82%
    15:00 +13°C° 0.4 mm 5 m/S 744 mmHg 82%
    16:00 +13°C° 0.4 mm 5 m/S 744 mmHg 82%
    17:00 +12°C° 0.4 mm 5 m/S 744 mmHg 82%
    18:00 +12°C° 0.2 mm 5 m/S 744 mmHg 83%
    19:00 +12°C° 0.2 mm 5 m/S 744 mmHg 84%
    20:00 +10°C° 0.2 mm 5 m/S 743 mmHg 85%
    21:00 +10°C° 0.2 mm 5 m/S 743 mmHg 86%
    22:00 +10°C° 0.2 mm 5 m/S 743 mmHg 86%
    23:00 +10°C° 0.2 mm 5 m/S 743 mmHg 87%
    Mehr zeigen